Overview Statistics Trail Chart Weather Telemetry Raw packets
 

This is the latest recevied weather packets stored in our database for station/object KC5DAQ-26. If no packets are shown the sender has not sent any weather packets the latest 10 day(s).

<< 360 361 362 363 364 365 366 >>
Time Temp. Humidity Pressure Rain* Wind** Luminosity Snow
1788190591 30.56° C 79% 1020.1 hPa 0 mm - 695 W/m² -
1788190531 30.56° C 80% 1020.1 hPa 0 mm - 714 W/m² -
1788190473 30° C 78% 1020.2 hPa 0 mm - 693 W/m² -
1788190412 30° C 78% 1020.2 hPa 0 mm - 587 W/m² -
1788190351 30° C 78% 1020.2 hPa 0 mm - 361 W/m² -
1788190299 30° C 78% 1020.2 hPa 0 mm - 387 W/m² -
1788190232 30° C 80% 1020.2 hPa 0 mm - 621 W/m² -
1788190171 30° C 82% 1020.2 hPa 0 mm - 730 W/m² -
1788190108 30° C 80% 1020.2 hPa 0 mm - 459 W/m² -
1788190047 30° C 80% 1020.3 hPa 0 mm - 329 W/m² -
1788189985 30° C 81% 1020.3 hPa 0 mm - 299 W/m² -
1788189925 30° C 80% 1020.2 hPa 0 mm - 290 W/m² -
1788189863 30° C 80% 1020.2 hPa 0 mm - 292 W/m² -
1788189801 30° C 81% 1020.1 hPa 0 mm - 303 W/m² -
1788189739 30° C 83% 1020.2 hPa 0 mm - 392 W/m² -
1788189677 29.44° C 81% 1020.2 hPa 0 mm - 557 W/m² -
1788189618 29.44° C 81% 1020.2 hPa 0 mm - 517 W/m² -
1788189555 29.44° C 81% 1020 hPa 0 mm - 412 W/m² -
1788189511 29.44° C 81% 1020.1 hPa 0 mm - 392 W/m² -
1788189432 29.44° C 82% 1020 hPa 0 mm - 283 W/m² -
1788189370 29.44° C 82% 1020 hPa 0 mm - 303 W/m² -
1788189310 29.44° C 82% 1020 hPa 0 mm - 253 W/m² -
1788189247 29.44° C 82% 1020 hPa 0 mm - 237 W/m² -
1788189185 29.44° C 82% 1020.1 hPa 0 mm - 211 W/m² -
1788189125 29.44° C 82% 1020 hPa 0 mm - 176 W/m² -

* Rain latest hour (hover to see other rain measurements)
** Current wind speed in m/s (hover to see current wind gust speed)